This demonstration page uses our WeatherBlox Daily Observations layout. Learn more.

Left ArrowRight Arrow

47.50024, -111.30081

Hourly Observations for April 10, 2016

Temp ( °F °C ) Dew Point ( °F °C ) Humidity (%) Winds ( mph kmh ) Pressure ( in mb ) Visibility ( mi km ) Precip ( " mm )
12:53 am 00:53 Cloudy 48 8.9 27 -2.8 44 44 NE 9 15 29.83 1010 10 16 0.00 0.00
1:53 am 01:53 Cloudy 46 7.8 28 -2.2 50 50 N 8 13 29.87 1011 10 16 0.00 0.00
2:53 am 02:53 Cloudy 45 7.2 31 -0.6 58 58 NNE 9 15 29.89 1012 10 16 0.00 0.00
3:53 am 03:53 Cloudy with Light Rain 43 6.1 32 0 65 65 N 10 17 29.93 1014 10 16 0.00 0.03
4:53 am 04:53 Cloudy with Light Rain 39 3.9 31 -0.6 73 73 NNE 16 26 29.98 1015 10 16 0.00 0.03
5:53 am 05:53 Cloudy with Light Rain 37 2.8 31 -0.6 79 79 N 13 20 30.03 1017 10 16 0.00 0.03
6:53 am 06:53 Cloudy 35 1.7 29 -1.7 78 78 N 10 17 30.07 1018 10 16 0.00 0.03
7:53 am 07:53 Cloudy 34 1.1 25 -3.9 70 70 N 8 13 30.11 1020 10 16 0.00 0.03
8:53 am 08:53 Cloudy 34 1.1 22 -5.6 61 61 NW 8 13 30.14 1021 10 16 0.00 0.00
9:53 am 09:53 Mostly Cloudy 38 3.3 23 -5 55 55 VRB 6 9 30.11 1020 10 16 0.00 0.00
10:53 am 10:53 Mostly Sunny 42 5.6 21 -6.1 43 43 undefined N/A 30.10 1019 10 16 0.00 0.00
11:53 am 11:53 Sunny 44 6.7 19 -7.2 37 37 VRB 7 11 30.09 1019 10 16 0.00 0.00
12:53 pm 12:53 Sunny 45 7.2 19 -7.2 35 35 VRB 3 6 30.07 1018 10 16 0.00 0.00
1:53 pm 13:53 Sunny 47 8.3 18 -7.8 31 31 NW 5 7 30.04 1017 10 16 0.00 0.00
2:53 pm 14:53 Sunny 50 10 18 -7.8 28 28 undefined N/A 30.02 1017 10 16 0.00 0.00
3:53 pm 15:53 Sunny 52 11.1 18 -7.8 26 26 VRB 3 6 30.00 1016 10 16 0.00 0.00
4:53 pm 16:53 Sunny 51 10.6 17 -8.3 26 26 NNE 6 9 30.01 1016 10 16 0.00 0.00
5:53 pm 17:53 Sunny 51 10.6 19 -7.2 28 28 E 5 7 30.02 1017 10 16 0.00 0.00
6:53 pm 18:53 Sunny 50 10 19 -7.2 29 29 NE 7 11 30.03 1017 10 16 0.00 0.00
7:53 pm 19:53 Sunny 45 7.2 19 -7.2 35 35 NE 12 19 30.05 1018 10 16 0.00 0.00
8:53 pm 20:53 Clear 42 5.6 19 -7.2 40 40 E 13 20 30.07 1018 10 16 0.00 0.00
9:53 pm 21:53 Clear 39 3.9 20 -6.7 46 46 E 8 13 30.08 1019 10 16 0.00 0.00
10:53 pm 22:53 Clear 38 3.3 20 -6.7 48 48 ESE 8 13 30.07 1018 10 16 0.00 0.00
11:53 pm 23:53 Clear 37 2.8 20 -6.7 50 50 E 9 15 30.06 1018 10 16 0.00 0.00

Powered by AerisWeather